Location: Champ Pejus
(48.1833°N, 1.0500°W)
Time: 10:40:44
(UTC+00:00)

Daily predictions for brighter satellites

Satellite Brightness Start Highest point End
(mag) Time Altitude Azimuth Time Altitude Azimuth Time Altitude Azimuth
Meteor 1-31 Rocket 3.8 16:41:29 10° S 16:45:11 51° W 16:48:56 10° NNW
NOSS 2-2 (C) 4.4 16:44:03 10° NW 16:49:10 87° NE 16:56:25 10° SE
Cosmos 1092 Rocket 4.0 16:46:16 10° N 16:52:39 72° E 16:58:56 10° SSE
Cosmos 1898 Rocket 4.1 16:47:39 10° NNW 16:52:51 62° WSW 16:57:57 10° S
CZ-4B R/B 4.1 16:50:17 10° ESE 16:54:28 24° ENE 16:58:37 10° N
Meteor 2-21 4.5 16:50:11 10° N 16:56:12 59° ENE 17:02:09 10° SSE
CZ-2D R/B 4.3 16:53:24 10° ESE 16:56:28 23° ENE 16:59:33 10° NNE
ATLAS CENTAUR R/B 3.1 16:46:27 10° SW 16:57:14 86° SE 17:01:31 10° NE
USA 267 3.7 16:51:02 10° ENE 16:57:20 48° SE 17:03:36 10° SSW
Cosmos 1939 Rocket 3.0 16:55:02 10° SSE 16:59:01 52° ENE 17:02:57 10° N
USA 306 3.4 16:55:41 10° WNW 16:59:45 42° NNE 17:03:47 10° E
Cosmos 1633 Rocket 3.8 16:57:19 10° N 17:01:16 32° ENE 17:05:12 10° SE
Cosmos 1151 Rocket 3.9 16:57:41 10° SSE 17:01:28 30° E 17:05:17 10° NNE
COSMO-SKYMED 1 4.3 16:59:20 10° NE 17:01:40 14° E 17:03:59 10° ESE
Cosmos 1666 3.3 16:59:42 10° N 17:03:05 32° ENE 17:06:26 10° SE
Cosmos 1782 2.9 16:59:33 10° S 17:03:27 55° E 17:07:21 10° NNE
Cosmos 2360 Rocket 3.6 17:00:29 10° N 17:04:24 19° NE 17:08:17 10° E
ISS -2.1 17:02:11 10° WNW 17:05:21 37° SW 17:08:31 10° SE
Cosmos 1763 Rocket 4.2 17:03:10 10° SW 17:08:08 53° WNW 17:13:11 10° NNE
SeaSat 1 3.9 17:04:35 10° NNE 17:08:59 33° NW 17:13:22 10° WSW
SL-08 R/B 3.5 17:04:49 10° NNE 17:09:31 75° WNW 17:14:07 10° SSW
Cosmos 1818 3.6 17:05:11 10° NNW 17:10:37 58° NE 17:15:59 10° SE
NOAA 12 4.2 17:06:19 10° SSE 17:11:39 83° WSW 17:16:59 10° NNW
CZ-2C R/B 3.9 17:13:29 10° S 17:14:53 11° SSE 17:16:16 10° SSE
Meteor 2-14 Rocket 4.4 17:09:23 10° N 17:15:32 82° E 17:21:36 10° S
ATLAS 5 CENTAUR R/B 3.1 17:08:34 10° NW 17:17:03 39° NNE 17:19:38 15° E
Cosmos 1627 Rocket 4.5 17:10:55 10° N 17:17:06 89° W 17:23:13 10° S
Cosmos 2279 Rocket 4.2 17:11:36 10° SSE 17:17:29 48° E 17:23:25 10° NNE
Cosmos 841 Rocket 3.5 17:13:09 10° SSW 17:18:19 89° ESE 17:23:30 10° NNE
Meteor PRIRODA 4.4 17:15:15 10° S 17:18:49 56° W 17:22:23 10° NNW
ERBS 4.1 17:17:09 10° NW 17:19:22 17° N 17:20:46 13° NNE
USA 307 3.3 17:16:16 10° WNW 17:20:23 46° NNE 17:23:32 16° E
CZ-4C R/B 3.1 17:14:22 10° NW 17:21:34 88° SW 17:30:01 10° SE
Lacrosse 5 rocket 1.1 17:19:51 10° NW 17:23:45 78° NE 17:27:52 10° ESE
Cosmos 1697 Rocket 4.4 17:19:34 10° NW 17:24:41 37° WSW 17:29:46 10° S
Cosmos 372 Rocket 4.4 17:19:38 10° NNW 17:24:52 70° WSW 17:30:05 10° SSE
ATLAS 2AS CENTAUR R/B 4.2 17:20:43 10° NW 17:26:42 24° N 17:31:18 14° NE
Cosmos 2322 Rocket 2.8 17:22:31 10° NNW 17:27:43 35° NE 17:32:53 10° ESE
Cosmos 2208 Rocket 4.3 17:22:38 10° S 17:27:50 49° ESE 17:32:51 11° NNE
Cosmos 2150 Rocket 4.3 17:24:50 10° NNW 17:29:49 45° ENE 17:34:49 10° SE
AQUARIUS 4.1 17:25:50 10° SSE 17:30:20 85° ENE 17:34:51 10° NNW
Cosmos 1666 Rocket 3.5 17:26:30 10° N 17:30:57 74° E 17:35:20 10° SSE
Cosmos 1980 Rocket 2.8 17:25:31 10° NNW 17:31:07 61° WSW 17:36:38 10° S
Cosmos 1328 Rocket 3.9 17:27:15 10° SSE 17:31:27 43° E 17:35:40 10° NNE
USA 234 3.2 17:25:15 10° ESE 17:31:48 78° NNE 17:38:21 10° NW
Cosmos 1470 Rocket 4.0 17:30:16 10° N 17:34:30 41° ENE 17:38:45 10° SE
Cosmos 1544 3.9 17:31:25 10° NNE 17:34:35 28° ENE 17:37:45 10° SE
CORIOLIS 4.2 17:30:26 10° SSE 17:35:51 86° WSW 17:41:20 10° NNW
Cosmos 1125 Rocket 3.7 17:30:59 10° NNW 17:36:04 47° ENE 17:41:08 10° SE
X-37B 2.6 17:35:03 10° SSW 17:36:53 16° SSE 17:37:49 14° SE
Cosmos 1812 2.6 17:33:23 10° S 17:37:14 79° E 17:41:06 10° NNE
Cosmos 2026 Rocket 4.4 17:31:19 10° NNW 17:37:23 67° W 17:43:23 10° S
PSLV R/B 3.5 17:34:44 10° SSE 17:38:25 74° ENE 17:42:12 10° N
H-2A R/B 1.9 17:34:11 10° SSE 17:39:13 64° ENE 17:44:11 10° N
Cosmos 1634 Rocket 4.2 17:33:33 10° SSW 17:39:53 79° W 17:46:15 10° N
Okean O Rocket 2.1 17:36:59 10° SE 17:41:04 37° ENE 17:45:11 10° N
Meteor 1-11 Rocket 4.1 17:36:13 10° N 17:41:33 41° ENE 17:46:57 10° SE
ATLAS CENTAUR R/B 4.0 17:41:23 10° NNW 17:42:17 10° N 17:43:11 10° N
USA 308 3.1 17:38:59 10° WNW 17:43:10 54° NNE 17:45:21 26° E
Sich 1 4.3 17:42:14 10° NNW 17:46:19 42° W 17:50:24 10° SSW
SL-16 R/B 2.2 17:42:54 10° NNW 17:48:32 58° ENE 17:54:07 10° SE
SKYMED 2 4.0 17:47:47 22° NE 17:50:09 40° E 17:54:14 10° SSE
ARGOS 3.2 17:45:56 10° SE 17:51:09 52° ENE 17:56:23 10° N
Cosmos 2082 Rocket 2.6 17:45:52 10° SW 17:51:30 64° WNW 17:56:57 11° NNE
Meteor 1-5 Rocket 4.4 17:47:39 10° NNW 17:53:40 81° W 17:59:31 10° S
SMAP 4.1 17:50:08 10° S 17:54:39 49° W 17:59:11 10° NNW
deb Chang Zheng 4 3.5 17:52:21 10° SSE 17:56:35 58° ENE 18:00:51 10° N
COSMOS 2455 3.5 17:53:58 10° SW 17:59:50 52° NW 18:04:54 14° NNE
Cosmos 1833 Rocket 4.3 18:00:21 10° WSW 18:05:11 29° NW 18:10:04 10° NNE
USA 305 2.8 18:03:18 10° WNW 18:07:34 74° NNE 18:08:52 43° E
Cosmos 2333 Rocket 3.2 18:03:18 10° NNW 18:08:05 27° NE 18:08:05 27° NE
Cosmos 1356 Rocket 3.4 18:05:03 10° N 18:09:14 62° ENE 18:13:27 10° SSE
CZ-2C R/B 2.5 18:06:50 14° NNE 18:11:22 68° ESE 18:16:30 10° S
Cosmos 2219 Rocket 3.4 18:11:19 10° N 18:15:04 24° NNE 18:15:04 24° NNE
Cosmos 44 Rocket 4.2 18:11:53 10° NW 18:16:36 47° WSW 18:21:09 10° SSE
Cosmos 1655 Rocket 4.0 18:10:44 10° N 18:17:11 84° E 18:23:32 10° S
Aureole 3 Rocket 3.8 18:13:23 10° SSE 18:17:53 50° E 18:24:10 10° NNE
Cosmos 1515 Rocket 3.4 18:14:07 10° S 18:18:32 73° E 18:20:26 34° NNE
Cosmos 921 Rocket 3.0 18:16:46 10° SSW 18:20:58 78° WNW 18:22:47 34° NNE
CZ-4 R/B 4.4 18:21:43 10° SSE 18:25:51 86° W 18:30:01 10° NNW
CZ-4B R/B 3.6 18:29:20 10° S 18:34:39 61° WSW 18:39:55 10° NNW
Cosmos 371 Rocket 4.1 18:30:40 10° NNW 18:33:50 35° NNE 18:33:50 35° NNE
COSMO-SKYMED 1 2.8 18:36:23 32° N 18:38:18 68° WNW 18:42:36 10° SSW
USA 306 2.9 18:35:37 10° WNW 18:39:51 76° SSW 18:39:52 76° SSW
USA 267 3.4 18:37:47 37° NE 18:40:32 68° NNW 18:47:01 10° WSW
Landsat 5 3.6 18:41:36 61° SSW 18:41:36 61° SSW 18:44:53 10° SSW
Meteor 2-15 Rocket 4.4 18:37:05 10° SSW 18:43:13 81° W 18:49:21 10° N
APEX 4.1 18:40:17 10° SW 18:43:02 41° WSW 18:43:02 41° WSW
Meteor 1-27 Rocket 3.5 18:38:58 10° S 18:44:28 82° E 18:46:30 41° NNE
YAOGAN 1 4.3 18:48:29 22° N 18:48:29 22° N 18:50:03 10° NNW
Cosmos 836 Rocket 4.4 18:41:59 10° SSW 18:47:17 89° WNW 18:48:20 59° NNE
Cosmos 2360 Rocket 2.0 18:43:41 10° NNW 18:49:23 78° ENE 18:50:07 66° ESE
Cosmos 2237 4.3 18:47:08 10° NNW 18:52:51 77° WSW 18:55:53 29° SSE
CZ-2C R/B 3.8 18:51:25 10° SSW 18:53:23 13° S 18:53:23 13° S
USA 307 3.7 18:56:13 10° WNW 18:59:35 50° W 18:59:35 50° W
Lacrosse 5 rocket 3.8 18:59:35 10° W 19:02:29 19° SW 19:04:38 14° SSW
SL-08 RB Rocket 4.4 18:58:03 10° S 19:02:33 52° W 19:07:03 10° NNW
Cosmos 2322 Rocket 3.1 19:06:29 10° NW 19:11:57 48° WSW 19:17:08 11° S
COSMOS 2428 4.2 19:08:12 10° NNW 19:10:45 25° N 19:10:45 25° N
USA 234 4.3 19:10:00 14° SSE 19:15:08 40° SW 19:21:14 10° WNW
NOSS 3-4 (A) 3.9 19:10:08 10° NW 19:16:19 59° NNE 19:16:19 59° NNE
NOSS 3-4 (C) 3.9 19:10:15 10° NW 19:16:24 59° NNE 19:16:24 59° NNE
Okean O Rocket 3.7 19:13:44 10° SSW 19:17:30 27° W 19:21:18 10° NW
Cosmos 1867 3.9 19:14:23 10° SW 19:19:10 64° W 19:19:10 64° W
ATLAS 2AS CENTAUR R/B 3.6 19:13:02 10° NW 19:18:44 35° N 19:18:44 35° N
GEOS 3 Rocket 4.3 19:23:02 46° NW 19:23:02 46° NW 19:26:39 10° NW
NOSS 3-3 (A) 4.1 19:21:14 10° SW 19:25:51 61° SW 19:25:51 61° SW
NOSS 3-3 (C) 4.1 19:21:20 10° SW 19:25:56 61° SW 19:25:56 61° SW
ATLAS CENTAUR R/B 4.3 19:24:02 10° WNW 19:27:07 20° NW 19:27:07 20° NW
SL-16 R/B 4.2 19:27:41 10° NW 19:32:14 26° WSW 19:36:47 10° SSW
Cosmos 2333 Rocket 3.7 19:47:12 10° NNW 19:50:07 31° NW 19:50:07 31° NW
Cosmos 2219 Rocket 4.1 19:54:48 10° NNW 19:56:50 23° NNW 19:56:50 23° NNW
